Dewpoint
30 30 31 32 32 33 34 35 36 37 39 40 41 42 42 43 46 49 50 60 59 58
29 30 31 32 32 33 34 35 36 37 38 39 40 42 42 42 42 46 50 51 60 58
29 29 30 31 31 32 33 34 35 36 36 37 39 40 42 43 43 44 48 51 56 59
29 29 29 29 30 30 31 32 33 34 35 35 36 39 41 42 43 44 46 50 52 57
29 30 29 29 29 30 30 31 31 32 33 34 36 37 40 41 44 46 47 48 50 54
27 28 29 29 28 29 29 29 30 31 31 31 33 34 36 39 41 44 47 49 50 51
26 27 27 28 28 28 28 27 28 29 30 30 31 32 33 35 38 42 50 50 51 52
26 26 27 26 27 27 27 26 26 27 29 30 30 31 33 36 39 41 50 50 49 48
24 24 25 25 25 25 25 25 26 26 28 29 29 32 32 34 36 37 38 39 38 37
22 22 22 23 22 22 23 23 24 25 27 28 29 31 31 31 31 31 32 32 33 32
19 19 19 20 21 21 22 22 23 24 25 26 28 30 30 31 30 29 29 29 30 31
18 17 18 18 18 19 21 21 23 24 24 25 26 29 29 28 27 27 27 28 29 29
19 18 18 18 18 18 20 21 22 21 22 24 24 28 28 26 26 24 24 26 27 29
20 19 19 20 20 19 18 19 20 20 20 21 21 22 24 24 23 23 22 23 24 26
Wind_Speed
18 14 14 14 17 17 16 17 18 17 18 19 19 18 19 18 18 17 20 23 27 24
18 18 17 17 16 15 17 17 18 18 18 19 19 20 20 20 21 20 18 22 22 26
18 17 17 16 17 18 17 18 19 18 18 18 18 19 20 21 21 22 20 19 23 26
17 17 17 17 16 17 18 18 18 18 19 20 20 19 20 22 23 26 24 21 24 27
18 19 18 18 18 18 18 18 18 19 19 19 19 18 19 23 23 24 25 25 24 31
19 20 20 20 21 21 22 21 21 20 20 21 20 20 19 20 24 27 29 27 26 30
19 21 23 23 23 23 23 24 24 23 23 24 23 22 23 24 25 25 27 26 25 29
21 21 21 23 23 23 24 24 25 25 24 25 22 23 27 22 22 23 22 12 7 9
19 22 23 24 23 23 25 25 27 29 26 27 25 31 32 26 16 19 21 12 14 17
19 21 23 23 26 28 28 28 30 30 27 28 34 37 32 31 25 22 26 24 21 20
21 21 24 25 26 26 26 27 27 29 30 31 35 41 36 29 26 26 33 33 26 24
19 21 24 25 24 22 23 24 24 25 30 33 36 45 42 26 24 29 33 33 36 29
18 22 21 20 21 20 20 20 20 24 27 30 31 42 43 33 23 29 27 31 30 37
19 19 18 17 18 20 20 21 22 23 25 28 32 33 41 41 30 26 29 26 27 28
Wind_Direction
336 329 322 323 321 311 307 304 301 300 298 298 295 290 285 282 277 267 260 244 217 218
332 332 325 321 314 305 302 301 301 300 293 291 286 282 279 276 271 270 265 262 232 218
335 334 331 326 322 317 312 309 305 303 300 293 283 277 272 270 267 261 259 255 254 219
342 346 346 341 333 328 322 320 314 313 308 304 295 283 268 259 258 255 256 253 252 245
351 353 349 348 345 342 340 335 331 326 322 318 309 306 292 276 259 250 248 252 251 245
0 360 356 359 359 356 352 350 349 345 339 335 323 312 297 281 272 264 250 243 244 243
7 7 5 4 3 4 4 1 353 351 350 344 332 327 314 289 270 262 248 238 241 242
11 7 8 6 7 6 7 3 1 357 356 354 347 339 332 304 249 247 242 235 246 250
15 13 11 10 7 8 8 7 7 5 1 4 2 355 9 15 27 53 60 61 54 42
22 19 11 12 14 12 8 5 8 6 5 12 14 11 21 29 33 48 52 50 46 46
24 22 18 14 11 9 9 7 6 5 9 15 17 17 20 27 39 45 52 48 42 45
25 29 24 16 6 5 8 9 8 9 13 16 18 21 23 22 33 43 50 49 47 44
31 33 25 14 8 7 6 7 10 19 22 21 20 23 26 26 30 39 43 45 43 43
34 32 19 10 15 15 13 11 15 21 22 24 25 23 29 30 29 31 38 38 36 35